Location: Newark
(44.1667°N, 8.2500°E)
Time: 01:25:09
(UTC+00:00)

A-11 Canister half - All Passes

Search period start: 11 December 2019 00:00
Search period end: 21 December 2019 00:00
Orbit: 1515 x 1685 km, 47.2° (Epoch: 10 December)

Date Brightness Start Highest point End Pass type
(mag) Time Alt. Az. Time Alt. Az. Time Alt. Az.
11 Dec - 09:42:14 10° S 09:50:15 32° SE 09:58:31 10° ENE daylight
11 Dec - 11:44:37 10° WSW 11:54:13 78° SSE 12:04:13 10° ENE daylight
11 Dec - 13:49:44 10° W 13:59:34 75° N 14:09:44 10° E daylight
11 Dec - 15:55:07 10° WNW 16:05:09 88° SSW 16:15:23 10° ESE daylight
11 Dec - 18:00:25 10° WNW 18:09:38 42° SW 18:18:55 10° SSE visible
11 Dec - 20:11:19 10° WSW 20:12:34 10° WSW 20:13:50 10° SW visible
12 Dec - 09:19:37 10° S 09:27:25 30° SE 09:35:27 10° ENE daylight
12 Dec - 11:21:44 10° SW 11:31:18 76° SSE 11:41:14 10° ENE daylight
12 Dec - 13:26:47 10° W 13:36:36 75° N 13:46:44 10° E daylight
12 Dec - 15:32:10 10° WNW 15:42:11 90° N 15:52:25 10° ESE daylight
12 Dec - 17:37:25 10° WNW 17:46:45 45° SW 17:56:09 10° SSE visible
12 Dec - 19:46:47 10° WSW 19:49:46 12° WSW 19:52:46 10° SW visible
13 Dec - 08:57:02 10° S 09:04:36 28° SE 09:12:22 10° ENE daylight
13 Dec - 10:58:52 10° SW 11:08:23 73° SSE 11:18:17 10° ENE daylight
13 Dec - 13:03:50 10° W 13:13:36 76° N 13:23:44 10° E daylight
13 Dec - 15:09:14 10° WNW 15:19:13 88° NNE 15:29:27 10° ESE daylight
13 Dec - 17:14:27 10° WNW 17:23:51 47° SW 17:33:22 10° SSE visible
13 Dec - 19:22:59 10° W 19:26:58 13° WSW 19:30:58 10° SW visible
14 Dec - 08:34:28 10° S 08:41:47 26° SE 08:49:16 10° ENE daylight
14 Dec - 10:36:02 10° SW 10:45:28 70° SSE 10:55:18 10° ENE daylight
14 Dec - 12:40:54 10° W 12:50:38 76° N 13:00:44 10° E daylight
14 Dec - 14:46:19 10° WNW 14:56:16 86° NNE 15:06:28 10° ESE daylight
14 Dec - 16:51:29 10° WNW 17:00:57 50° SW 17:10:34 10° SSE visible
14 Dec - 18:59:26 10° W 19:04:10 14° WSW 19:08:54 10° SSW visible
15 Dec - 08:11:56 10° S 08:18:58 24° SE 08:26:09 10° E daylight
15 Dec - 10:13:11 10° SW 10:22:33 68° SSE 10:32:19 10° ENE daylight
15 Dec - 12:17:57 10° W 12:27:39 77° N 12:37:44 10° E daylight
15 Dec - 14:23:22 10° WNW 14:33:17 85° NNE 14:43:29 10° ESE daylight
15 Dec - 16:28:32 10° WNW 16:38:03 52° SW 16:47:45 10° SE visible
15 Dec - 18:36:01 10° W 18:41:21 16° WSW 18:46:43 10° SSW visible
16 Dec - 07:49:26 10° S 07:56:10 22° SE 08:03:01 10° E daylight
16 Dec - 09:50:21 10° SW 09:59:40 65° SSE 10:09:21 10° ENE daylight
16 Dec - 11:55:01 10° W 12:04:41 78° N 12:14:44 10° ENE daylight
16 Dec - 14:00:26 10° WNW 14:10:19 83° NNE 14:20:30 10° ESE daylight
16 Dec - 16:05:34 10° WNW 16:15:09 55° SW 16:24:55 10° SE visible
16 Dec - 18:12:41 10° W 18:18:32 17° SW 18:24:24 10° SSW visible
17 Dec - 07:27:00 10° S 07:33:22 21° SE 07:39:51 10° E daylight
17 Dec - 09:27:32 10° SW 09:36:46 62° SE 09:46:22 10° ENE daylight
17 Dec - 11:32:04 10° W 11:41:43 79° N 11:51:45 10° ENE daylight
17 Dec - 13:37:29 10° WNW 13:47:20 82° NNE 13:57:30 10° ESE daylight
17 Dec - 15:42:37 10° WNW 15:52:15 57° SW 16:02:04 10° SE daylight
17 Dec - 17:49:26 10° W 17:55:42 19° SW 18:02:03 10° SSW visible
18 Dec - 07:04:35 10° SSE 07:10:34 19° SE 07:16:39 10° E daylight
18 Dec - 09:04:44 10° SW 09:13:53 59° SE 09:23:24 10° ENE daylight
18 Dec - 11:09:08 10° W 11:18:45 80° NNW 11:28:45 10° ENE daylight
18 Dec - 13:14:33 10° WNW 13:24:22 80° NNE 13:34:30 10° E daylight
18 Dec - 15:19:41 10° WNW 15:29:20 60° SW 15:39:13 10° SE daylight
18 Dec - 17:26:14 10° W 17:32:53 20° SW 17:39:36 10° S visible
19 Dec - 06:42:14 10° SSE 06:47:46 17° SE 06:53:24 10° E daylight
19 Dec - 08:41:56 10° SW 08:51:01 57° SE 09:00:25 10° ENE daylight
19 Dec - 10:46:13 10° WSW 10:55:47 81° NNW 11:05:46 10° ENE daylight
19 Dec - 12:51:37 10° WNW 13:01:24 79° NNE 13:11:30 10° E daylight
19 Dec - 14:56:44 10° WNW 15:06:26 62° SW 15:16:20 10° SE daylight
19 Dec - 17:03:03 10° W 17:10:03 22° SW 17:17:07 10° S visible
20 Dec - 06:19:57 10° SSE 06:24:59 16° SE 06:30:04 10° E visible
20 Dec - 08:19:09 10° SW 08:28:08 54° SE 08:37:27 10° ENE daylight
20 Dec - 10:23:17 10° WSW 10:32:50 83° NNW 10:42:47 10° ENE daylight
20 Dec - 12:28:42 10° WNW 12:38:26 78° N 12:48:30 10° E daylight
20 Dec - 14:33:48 10° WNW 14:43:30 65° SSW 14:53:27 10° SE daylight
20 Dec - 16:39:56 10° W 16:47:13 24° SW 16:54:36 10° S visible
